Location: Unspecified
(0.0000°N, 0.0000°E)
Time: 03:25:39
(UTC+00:00)

ISS - Visible Passes

Search period start: 12 December 2018 00:00
Search period end: 22 December 2018 00:00
Orbit: 401 x 408 km, 51.6° (Epoch: 12 December)

Date Brightness Start Highest point End Pass type
(mag) Time Alt. Az. Time Alt. Az. Time Alt. Az.
15 Dec -2.8 18:42:31 10° N 18:45:17 26° NE 18:47:42 12° ESE visible
16 Dec -1.2 19:26:47 10° WNW 19:29:24 23° SW 19:32:02 10° S visible
17 Dec -3.4 18:34:02 10° NW 18:37:14 67° SW 18:40:28 10° SSE visible
19 Dec -0.9 05:16:21 10° S 05:19:02 23° SE 05:21:42 10° ENE visible
19 Dec -0.5 18:27:01 10° W 18:29:09 16° SW 18:31:17 10° SSW visible
21 Dec -3.9 05:07:36 10° SW 05:10:53 79° WNW 05:14:09 10° NNE visible
